Simultaneous Nadir Overpasses (SNOs) Predictions

Prediction of SNOs between LANDSAT-8 and NOAA-19 Satellite Orbit:

Table of predicted SNOs for the next 14.0 days since TLE Epoch: 9/8/2018
Index Date (LANDSAT-8) Time (LANDSAT-8) Lat,Lon (LANDSAT-8) SZA (LANDSAT-8 ) Date (NOAA-19) Time (NOAA-19) Lat,Lon (NOAA-19) SZA (NOAA-19 ) Distance(km) Time Diff (sec)
1 09/10/2018 01:34:04 -77.94, -8.25 106.66 09/10/2018 01:33:33 -77.92, -8.12 106.67 3.34 31
2 09/10/2018 02:23:31 77.89, 159.17 73.30 09/10/2018 02:24:34 77.90, 159.27 73.33 2.76 63
3 09/12/2018 07:07:48 77.94, 88.32 74.20 09/12/2018 07:07:07 77.95, 88.43 74.21 2.84 41
4 09/12/2018 07:57:16 -77.91,-104.18 105.83 09/12/2018 07:58:06 -77.91,-104.11 105.80 1.90 50
5 09/14/2018 12:41:33 -77.96,-175.03 104.91 09/14/2018 12:40:40 -77.98,-175.05 104.90 2.54 53
6 09/14/2018 13:30:59 77.95, -7.44 75.09 09/14/2018 13:31:39 77.93, -7.50 75.08 2.57 40
7 09/16/2018 18:15:16 77.99, -78.30 76.01 09/16/2018 18:14:12 77.98, -78.37 75.98 2.04 64
8 09/16/2018 19:04:45 -77.92, 89.02 104.07 09/16/2018 19:05:12 -77.93, 89.15 104.04 3.27 27
9 09/18/2018 23:49:01 -78.01, 18.36 103.10 09/18/2018 23:47:48 -78.08, 17.73 103.09 16.51 73
10 09/19/2018 00:38:28 77.95,-174.27 76.84 09/19/2018 00:38:44 77.96,-174.32 76.86 1.79 16
11 09/21/2018 06:12:12 -77.97, -77.61 102.26 09/21/2018 06:12:17 -77.97, -77.67 102.26 1.49 5




NCC Satellite Simultaneous Nadir Overpasses (SNOs) Prediction Service
